Regional Weather Roundup
Issued by NWS

Home | Current Version | Previous Version | Text Only | Print | Product List | Glossary Off
Versions: 1 2 3 4 5 6 7 8 9 10 11 12 13 14 15 16 17 18 19 20 21 22 23 24 25 26 27 28 29 30 31 32 33 34 35 36 37 38 39 40 41 42 43 44 45 46 47 48 49 50

000
ASUS43 KBIS 170602
RWRND

NORTH DAKOTA REGIONAL WEATHER ROUNDUP
NATIONAL WEATHER SERVICE BISMARCK ND
1200 AM CST SAT FEB 17 2018

NOTE: "FAIR" INDICATES FEW OR NO CLOUDS BELOW 12,000 FEET WITH NO
SIGNIFICANT WEATHER AND/OR OBSTRUCTIONS TO VISIBILITY.


NDZ001>003-009>011-017-170700-
NORTHWEST NORTH DAKOTA

CITY           SKY/WX    TMP DP  RH WIND       PRES   REMARKS
WILLISTON      MOCLDY    15  10  80 CALM      29.80R
6HR MIN TEMP:  13; 6HR MAX TEMP:  25;

MINOT          CLOUDY    23  15  71 W10       29.75S WCI  12
MINOT AFB      CLOUDY    19  14  80 W8          N/A  WCI   9
$$

NDZ018>021-031>035-040>046-170700-
SOUTHWEST NORTH DAKOTA

CITY           SKY/WX    TMP DP  RH WIND       PRES   REMARKS
BISMARCK       CLEAR     20  16  84 NW6       29.81S WCI  12
6HR MIN TEMP:  20; 6HR MAX TEMP:  29;

DICKINSON      PTCLDY    16  14  92 W8        29.74S WCI   5
GARRISON         N/A     16  12  84 NW8       29.77S WCI   5
6HR MIN TEMP:  16; 6HR MAX TEMP:  25;

HETTINGER ARPT PTCLDY    15  13  91 W5        29.80S WCI   8
$$

NDZ004>008-012>016-024-026-027-054-170700-
NORTHEAST NORTH DAKOTA

CITY           SKY/WX    TMP DP  RH WIND       PRES   REMARKS
GRAND FORKS    FAIR      24  17  74 W14       29.75R WCI  12
GRND FRKS AFB  FAIR      25  15  67 W16       29.74S WCI  12
DEVILS LAKE    FAIR      16  12  84 W13       29.74  WCI   2
$$

NDZ022-023-025-028>030-036>039-047>053-170700-
SOUTHEAST NORTH DAKOTA

CITY           SKY/WX    TMP DP  RH WIND       PRES   REMARKS
FARGO          CLOUDY    24  17  74 SW10      29.80F WCI  14
6HR MIN TEMP:  23; 6HR MAX TEMP:  25;

JAMESTOWN      MOCLDY    23  16  74 W10       29.77S WCI  12
$$





USA.gov is the U.S. government's official web portal to all federal, state and local government web resources and services.